When you browse on this site, cookies collect data to enhance your experience and personalize the content and advertising you see.
Visit our Privacy Policy to learn more. By continuing to use the site, you agree to this use of cookies and data.
  • In Austria
  • List of Countries
  • For 7 days
  • Water Temperature
  • Satellite Maps
  • Weather Map
  • News
  • Weather Widgets
  • user-avatar
    Login

    Hourly Weather Malye Steblevichi

    Today, 16 July, Tuesday

    Time Temperature Precipitation Wind Pressure Humidity
    00:00 +13°C° 0 mm 1 mps 746 mmHg 90%
    01:00 +13°C° 0 mm 1 mps 746 mmHg 91%
    02:00 +12°C° 0 mm 1 mps 746 mmHg 90%
    03:00 +12°C° 0 mm 1 mps 746 mmHg 90%
    04:00 +12°C° 0 mm 1 mps 746 mmHg 90%
    05:00 +12°C° 0 mm 1 mps 746 mmHg 90%
    06:00 +14°C° 0 mm 1 mps 746 mmHg 85%
    07:00 +16°C° 0 mm 1 mps 746 mmHg 80%
    08:00 +19°C° 0 mm 1 mps 746 mmHg 75%
    09:00 +19°C° 0.3 mm 2 mps 745 mmHg 71%
    10:00 +20°C° 0.3 mm 2 mps 745 mmHg 67%
    11:00 +21°C° 0.3 mm 2 mps 745 mmHg 62%
    12:00 +23°C° 0.2 mm 2 mps 744 mmHg 62%
    13:00 +22°C° 0.2 mm 3 mps 744 mmHg 61%
    14:00 +24°C° 0.2 mm 3 mps 744 mmHg 60%
    15:00 +22°C° 0.4 mm 3 mps 743 mmHg 65%
    16:00 +22°C° 0.4 mm 3 mps 743 mmHg 70%
    17:00 +21°C° 0.4 mm 3 mps 743 mmHg 75%
    18:00 +20°C° 0.3 mm 3 mps 743 mmHg 80%
    19:00 +18°C° 0.3 mm 2 mps 743 mmHg 84%
    20:00 +17°C° 0.3 mm 2 mps 743 mmHg 88%
    21:00 +16°C° 0.4 mm 2 mps 743 mmHg 90%
    22:00 +14°C° 0.4 mm 3 mps 743 mmHg 92%
    23:00 +13°C° 0.4 mm 3 mps 743 mmHg 94%

    Tomorrow, 17 July, Wednesday

    Time Temperature Precipitation Wind Pressure Humidity
    00:00 +12°C° 0 mm 3 mps 743 mmHg 94%
    01:00 +12°C° 0 mm 3 mps 743 mmHg 94%
    02:00 +11°C° 0 mm 3 mps 743 mmHg 94%
    03:00 +10°C° 0 mm 3 mps 743 mmHg 95%
    04:00 +10°C° 0 mm 3 mps 743 mmHg 97%
    05:00 +10°C° 0 mm 2 mps 743 mmHg 98%
    06:00 +11°C° 0 mm 3 mps 743 mmHg 94%
    07:00 +12°C° 0 mm 3 mps 743 mmHg 91%
    08:00 +14°C° 0 mm 3 mps 743 mmHg 87%
    09:00 +14°C° 0.5 mm 4 mps 743 mmHg 84%
    10:00 +15°C° 0.5 mm 4 mps 743 mmHg 82%
    11:00 +17°C° 0.5 mm 4 mps 743 mmHg 79%
    12:00 +17°C° 0.3 mm 4 mps 742 mmHg 76%
    13:00 +18°C° 0.3 mm 4 mps 742 mmHg 73%
    14:00 +18°C° 0.3 mm 4 mps 742 mmHg 69%
    15:00 +18°C° 0.6 mm 4 mps 742 mmHg 72%
    16:00 +18°C° 0.6 mm 4 mps 742 mmHg 76%
    17:00 +18°C° 0.6 mm 4 mps 741 mmHg 79%
    18:00 +17°C° 0.7 mm 4 mps 741 mmHg 83%
    19:00 +16°C° 0.7 mm 3 mps 741 mmHg 88%
    20:00 +14°C° 0.7 mm 3 mps 741 mmHg 92%
    21:00 +13°C° 0 mm 3 mps 742 mmHg 93%
    22:00 +12°C° 0 mm 3 mps 742 mmHg 95%
    23:00 +11°C° 0 mm 3 mps 742 mmHg 96%

    Day after tomorrow, 18 July, Thursday

    Time Temperature Precipitation Wind Pressure Humidity
    00:00 +11°C° 0 mm 3 mps 742 mmHg 96%
    01:00 +11°C° 0 mm 3 mps 742 mmHg 97%
    02:00 +10°C° 0 mm 3 mps 742 mmHg 97%
    03:00 +10°C° 0 mm 3 mps 742 mmHg 98%
    04:00 +10°C° 0 mm 3 mps 742 mmHg 98%
    05:00 +10°C° 0 mm 3 mps 742 mmHg 99%
    06:00 +11°C° 0 mm 3 mps 743 mmHg 97%
    07:00 +12°C° 0 mm 4 mps 743 mmHg 95%
    08:00 +13°C° 0 mm 4 mps 743 mmHg 94%
    09:00 +14°C° 0 mm 4 mps 743 mmHg 91%
    10:00 +14°C° 0 mm 4 mps 743 mmHg 89%
    11:00 +15°C° 0 mm 4 mps 744 mmHg 86%
    12:00 +16°C° 0 mm 5 mps 744 mmHg 82%
    13:00 +17°C° 0 mm 5 mps 743 mmHg 78%
    14:00 +19°C° 0 mm 5 mps 743 mmHg 75%
    15:00 +19°C° 0.2 mm 5 mps 744 mmHg 77%
    16:00 +20°C° 0.2 mm 5 mps 744 mmHg 79%
    17:00 +20°C° 0.2 mm 5 mps 744 mmHg 81%
    18:00 +19°C° 0.4 mm 4 mps 744 mmHg 85%
    19:00 +18°C° 0.4 mm 3 mps 744 mmHg 89%
    20:00 +17°C° 0.4 mm 3 mps 744 mmHg 93%
    21:00 +16°C° 0 mm 3 mps 744 mmHg 94%
    22:00 +16°C° 0 mm 3 mps 745 mmHg 95%
    23:00 +14°C° 0 mm 3 mps 745 mmHg 96%

    19 July, Friday

    Time Temperature Precipitation Wind Pressure Humidity
    00:00 +14°C° 0 mm 3 mps 745 mmHg 96%
    01:00 +13°C° 0 mm 3 mps 745 mmHg 96%
    02:00 +13°C° 0 mm 3 mps 746 mmHg 97%
    03:00 +13°C° 0 mm 3 mps 746 mmHg 97%
    04:00 +12°C° 0 mm 3 mps 746 mmHg 97%
    05:00 +12°C° 0 mm 3 mps 746 mmHg 97%
    06:00 +13°C° 0 mm 3 mps 747 mmHg 92%
    07:00 +16°C° 0 mm 3 mps 747 mmHg 88%
    08:00 +18°C° 0 mm 3 mps 747 mmHg 84%
    09:00 +19°C° 0 mm 4 mps 747 mmHg 77%
    10:00 +21°C° 0 mm 4 mps 747 mmHg 69%
    11:00 +22°C° 0 mm 4 mps 747 mmHg 61%
    12:00 +23°C° 0.2 mm 4 mps 747 mmHg 61%
    13:00 +23°C° 0.2 mm 4 mps 747 mmHg 60%
    14:00 +23°C° 0.2 mm 4 mps 747 mmHg 59%
    15:00 +23°C° 0.1 mm 4 mps 747 mmHg 61%
    16:00 +23°C° 0.1 mm 4 mps 747 mmHg 62%
    17:00 +24°C° 0.1 mm 3 mps 747 mmHg 64%
    18:00 +22°C° 0 mm 3 mps 748 mmHg 69%
    19:00 +20°C° 0 mm 2 mps 748 mmHg 75%
    20:00 +18°C° 0 mm 2 mps 748 mmHg 81%
    21:00 +17°C° 0 mm 2 mps 748 mmHg 83%
    22:00 +16°C° 0 mm 1 mps 749 mmHg 85%
    23:00 +15°C° 0 mm 1 mps 749 mmHg 88%

    20 July, Saturday

    Time Temperature Precipitation Wind Pressure Humidity
    00:00 +15°C° 0 mm 1 mps 749 mmHg 88%
    01:00 +14°C° 0 mm 1 mps 749 mmHg 87%
    02:00 +14°C° 0 mm 1 mps 749 mmHg 87%
    03:00 +14°C° 0 mm 1 mps 749 mmHg 87%
    04:00 +14°C° 0 mm 1 mps 749 mmHg 86%
    05:00 +14°C° 0 mm 1 mps 749 mmHg 86%
    06:00 +16°C° 0 mm 1 mps 750 mmHg 80%
    07:00 +19°C° 0 mm 1 mps 750 mmHg 75%
    08:00 +21°C° 0 mm 1 mps 750 mmHg 69%
    09:00 +22°C° 0 mm 1 mps 750 mmHg 65%
    10:00 +24°C° 0 mm 1 mps 750 mmHg 61%
    11:00 +24°C° 0 mm 0 mps 750 mmHg 57%
    12:00 +26°C° 0.2 mm 1 mps 750 mmHg 56%
    13:00 +26°C° 0.2 mm 1 mps 750 mmHg 55%
    14:00 +26°C° 0.2 mm 1 mps 749 mmHg 54%
    15:00 +26°C° 0.1 mm 1 mps 749 mmHg 59%
    16:00 +25°C° 0.1 mm 2 mps 749 mmHg 64%
    17:00 +25°C° 0.1 mm 2 mps 749 mmHg 69%
    18:00 +23°C° 0.1 mm 1 mps 749 mmHg 75%
    19:00 +21°C° 0.1 mm 1 mps 749 mmHg 81%
    20:00 +20°C° 0.1 mm 1 mps 749 mmHg 87%
    21:00 +19°C° 0 mm 1 mps 750 mmHg 89%
    22:00 +18°C° 0 mm 1 mps 750 mmHg 90%
    23:00 +16°C° 0 mm 0 mps 750 mmHg 91%

    21 July, Sunday

    Time Temperature Precipitation Wind Pressure Humidity
    00:00 +15°C° 0 mm 0 mps 750 mmHg 92%
    01:00 +15°C° 0 mm 0 mps 750 mmHg 92%
    02:00 +14°C° 0 mm 0 mps 750 mmHg 92%
    03:00 +14°C° 0 mm 0 mps 750 mmHg 92%
    04:00 +14°C° 0 mm 0 mps 750 mmHg 92%
    05:00 +14°C° 0 mm 0 mps 750 mmHg 92%
    06:00 +16°C° 0 mm 0 mps 750 mmHg 88%
    07:00 +18°C° 0 mm 0 mps 750 mmHg 83%
    08:00 +20°C° 0 mm 0 mps 750 mmHg 78%
    09:00 +21°C° 0.4 mm 0 mps 751 mmHg 72%
    10:00 +23°C° 0.4 mm 0 mps 751 mmHg 67%
    11:00 +26°C° 0.4 mm 1 mps 751 mmHg 61%
    12:00 +27°C° 0.1 mm 1 mps 751 mmHg 57%
    13:00 +27°C° 0.1 mm 1 mps 750 mmHg 54%
    14:00 +28°C° 0.1 mm 1 mps 750 mmHg 51%
    15:00 +27°C° 0 mm 1 mps 750 mmHg 52%
    16:00 +27°C° 0 mm 1 mps 750 mmHg 54%
    17:00 +27°C° 0 mm 1 mps 750 mmHg 56%
    18:00 +25°C° 0 mm 1 mps 750 mmHg 62%
    19:00 +23°C° 0 mm 1 mps 750 mmHg 69%
    20:00 +21°C° 0 mm 1 mps 750 mmHg 75%
    21:00 +21°C° 0.3 mm 1 mps 750 mmHg 77%
    22:00 +20°C° 0.3 mm 1 mps 750 mmHg 79%
    23:00 +20°C° 0.3 mm 1 mps 750 mmHg 81%
    Show more